Location: Unspecified
(43.3830°N, 0.0000°E)
Time: 07:28:53
(UTC+00:00)

Explorer 7 - Pass Details

Date: 29 June 2019
Orbit: 485 x 680 km, 50.3° (Epoch: 19 July)

Event Time Altitude Azimuth Distance (km) Brightness Sun altitude
Rises 05:53:24 0° 226° (SW) 2,624 9.7 14.0°
Reaches altitude 10° 05:55:33 10° 222° (SW) 1,766 8.9 14.4°
Maximum altitude 05:59:29 56° 144° (SE) 661 7.6 15.0°
Drops below altitude 10° 06:03:42 10° 66° (ENE) 1,891 12.1 15.8°
Sets 06:06:05 0° 62° (ENE) 2,830 12.1 16.2°
